Wetterdaten: aktuell Sonntag, 26.03.2023 08:15
Datum Zeit Temp. A. Temp. A. min Feuchte A. Luftdruck Regen Wind Richtung Richtung Sonnenschein Solar Taupunkt Windchill Windben
26.03.2023 08:15 7,2 C 7,1 C 89 % 1006,0 hPa 0,0 l/m 0,5 km/h (0 Bft) NW 323 0 min 0 W/m 5,5 C 7,2 C 3,2 km/h (1 Bft)
26.03.2023 08:10 7,1 C 7,1 C 89 % 1006,2 hPa 0,0 l/m 0,0 km/h (0 Bft) N-NO 19 0 min 0 W/m 5,4 C 7,1 C 0,0 km/h (0 Bft)
26.03.2023 08:05 7,1 C 6,9 C 90 % 1006,2 hPa 0,0 l/m 0,0 km/h (0 Bft) W-NW 295 0 min 0 W/m 5,6 C 7,1 C 0,0 km/h (0 Bft)
26.03.2023 08:00 6,9 C 6,9 C 89 % 1006,3 hPa 0,0 l/m 0,0 km/h (0 Bft) W-NW 287 0 min 0 W/m 5,2 C 6,9 C 0,0 km/h (0 Bft)
26.03.2023 07:55 6,9 C 6,9 C 89 % 1006,4 hPa 0,0 l/m 0,0 km/h (0 Bft) N-NO 17 0 min 0 W/m 5,2 C 6,9 C 0,0 km/h (0 Bft)
26.03.2023 07:50 6,9 C 6,8 C 90 % 1006,5 hPa 0,0 l/m 0,2 km/h (0 Bft) N-NO 19 0 min 0 W/m 5,4 C 6,9 C 1,6 km/h (1 Bft)
26.03.2023 07:45 6,8 C 6,7 C 90 % 1006,6 hPa 0,0 l/m 0,4 km/h (0 Bft) N-NO 26 0 min 0 W/m 5,3 C 6,8 C 1,6 km/h (1 Bft)
26.03.2023 07:40 6,7 C 6,6 C 90 % 1006,6 hPa 0,0 l/m 1,0 km/h (0 Bft) O-NO 73 0 min 0 W/m 5,2 C 6,7 C 3,2 km/h (1 Bft)
26.03.2023 07:35 6,7 C 6,6 C 90 % 1006,7 hPa 0,0 l/m 1,4 km/h (1 Bft) NO 44 0 min 0 W/m 5,2 C 6,7 C 8,0 km/h (2 Bft)
26.03.2023 07:30 6,6 C 6,6 C 90 % 1006,8 hPa 0,0 l/m 0,8 km/h (0 Bft) N-NO 26 0 min 0 W/m 5,1 C 6,6 C 3,2 km/h (1 Bft)
26.03.2023 07:25 6,6 C 6,5 C 90 % 1006,9 hPa 0,0 l/m 0,3 km/h (0 Bft) S-SO 154 0 min 0 W/m 5,1 C 6,6 C 1,6 km/h (1 Bft)
26.03.2023 07:20 6,6 C 6,5 C 90 % 1006,9 hPa 0,0 l/m 0,1 km/h (0 Bft) S-SO 166 0 min 0 W/m 5,1 C 6,6 C 1,6 km/h (1 Bft)
26.03.2023 07:15 6,6 C 6,5 C 90 % 1006,9 hPa 0,0 l/m 0,2 km/h (0 Bft) S-SO 166 0 min 0 W/m 5,1 C 6,6 C 1,6 km/h (1 Bft)
26.03.2023 07:10 6,5 C 6,5 C 90 % 1006,8 hPa 0,0 l/m 0,7 km/h (0 Bft) S-SO 165 0 min 0 W/m 5,0 C 6,5 C 1,6 km/h (1 Bft)
26.03.2023 07:05 6,5 C 6,4 C 89 % 1006,8 hPa 0,0 l/m 0,3 km/h (0 Bft) O 86 0 min 0 W/m 4,8 C 6,5 C 1,6 km/h (1 Bft)
26.03.2023 07:00 6,4 C 6,4 C 89 % 1007,1 hPa 0,0 l/m 0,0 km/h (0 Bft) O-NO 65 0 min 0 W/m 4,7 C 6,4 C 0,0 km/h (0 Bft)
26.03.2023 06:55 6,4 C 6,4 C 89 % 1007,2 hPa 0,0 l/m 0,0 km/h (0 Bft) O-NO 66 0 min 0 W/m 4,7 C 6,4 C 0,0 km/h (0 Bft)
26.03.2023 06:50 6,4 C 6,4 C 89 % 1007,3 hPa 0,0 l/m 0,0 km/h (0 Bft) O-NO 66 0 min 0 W/m 4,7 C 6,4 C 0,0 km/h (0 Bft)
26.03.2023 06:45 6,4 C 6,4 C 89 % 1007,4 hPa 0,0 l/m 0,0 km/h (0 Bft) O-NO 66 0 min 0 W/m 4,7 C 6,4 C 0,0 km/h (0 Bft)
26.03.2023 06:40 6,4 C 6,4 C 89 % 1007,5 hPa 0,0 l/m 0,0 km/h (0 Bft) O-NO 66 0 min 0 W/m 4,7 C 6,4 C 0,0 km/h (0 Bft)
26.03.2023 06:35 6,4 C 6,4 C 89 % 1007,7 hPa 0,0 l/m 0,0 km/h (0 Bft) O-NO 66 0 min 0 W/m 4,7 C 6,4 C 0,0 km/h (0 Bft)
26.03.2023 06:30 6,4 C 6,4 C 89 % 1007,8 hPa 0,0 l/m 0,0 km/h (0 Bft) O-NO 66 0 min 0 W/m 4,7 C 6,4 C 0,0 km/h (0 Bft)
26.03.2023 06:25 6,4 C 6,4 C 89 % 1007,9 hPa 0,0 l/m 0,0 km/h (0 Bft) O-NO 66 0 min 0 W/m 4,7 C 6,4 C 0,0 km/h (0 Bft)
26.03.2023 06:20 6,4 C 6,4 C 89 % 1008,0 hPa 0,0 l/m 0,0 km/h (0 Bft) O-NO 66 0 min 0 W/m 4,7 C 6,4 C 0,0 km/h (0 Bft)
26.03.2023 06:15 6,4 C 6,4 C 89 % 1008,0 hPa 0,0 l/m 0,0 km/h (0 Bft) O-NO 66 0 min 0 W/m 4,7 C 6,4 C 0,0 km/h (0 Bft)
26.03.2023 06:10 6,4 C 6,4 C 88 % 1008,0 hPa 0,0 l/m 0,0 km/h (0 Bft) O-NO 66 0 min 0 W/m 4,6 C 6,4 C 0,0 km/h (0 Bft)
26.03.2023 06:05 6,4 C 6,4 C 88 % 1008,1 hPa 0,0 l/m 0,0 km/h (0 Bft) O-NO 65 0 min 0 W/m 4,6 C 6,4 C 0,0 km/h (0 Bft)
26.03.2023 06:00 6,5 C 6,5 C 88 % 1008,2 hPa 0,0 l/m 0,0 km/h (0 Bft) O-NO 65 0 min 0 W/m 4,7 C 6,5 C 0,0 km/h (0 Bft)
26.03.2023 05:55 6,5 C 6,5 C 88 % 1008,3 hPa 0,0 l/m 0,0 km/h (0 Bft) O-NO 65 0 min 0 W/m 4,7 C 6,5 C 0,0 km/h (0 Bft)
26.03.2023 05:50 6,5 C 6,5 C 88 % 1008,4 hPa 0,0 l/m 0,0 km/h (0 Bft) O-NO 65 0 min 0 W/m 4,7 C 6,5 C 0,0 km/h (0 Bft)
26.03.2023 05:45 6,6 C 6,6 C 88 % 1008,5 hPa 0,0 l/m 0,0 km/h (0 Bft) O-NO 65 0 min 0 W/m 4,8 C 6,6 C 0,0 km/h (0 Bft)
26.03.2023 05:40 6,6 C 6,6 C 88 % 1008,6 hPa 0,0 l/m 0,0 km/h (0 Bft) O-NO 63 0 min 0 W/m 4,8 C 6,6 C 0,0 km/h (0 Bft)
26.03.2023 05:35 6,6 C 6,6 C 88 % 1008,7 hPa 0,0 l/m 0,0 km/h (0 Bft) O-NO 63 0 min 0 W/m 4,8 C 6,6 C 0,0 km/h (0 Bft)
26.03.2023 05:30 6,6 C 6,6 C 88 % 1008,8 hPa 0,0 l/m 0,0 km/h (0 Bft) O-NO 63 0 min 0 W/m 4,8 C 6,6 C 0,0 km/h (0 Bft)
26.03.2023 05:25 6,7 C 6,7 C 87 % 1008,9 hPa 0,0 l/m 0,0 km/h (0 Bft) O-NO 63 0 min 0 W/m 4,7 C 6,7 C 1,6 km/h (1 Bft)
26.03.2023 05:20 6,7 C 6,7 C 87 % 1008,9 hPa 0,0 l/m 0,0 km/h (0 Bft) O-NO 63 0 min 0 W/m 4,7 C 6,7 C 1,6 km/h (1 Bft)
26.03.2023 05:15 6,7 C 6,7 C 87 % 1008,9 hPa 0,0 l/m 0,3 km/h (0 Bft) O-NO 63 0 min 0 W/m 4,7 C 6,7 C 1,6 km/h (1 Bft)
26.03.2023 05:10 6,8 C 6,8 C 87 % 1008,9 hPa 0,0 l/m 0,0 km/h (0 Bft) O-NO 62 0 min 0 W/m 4,8 C 6,8 C 0,0 km/h (0 Bft)
26.03.2023 05:05 6,8 C 6,8 C 86 % 1009,0 hPa 0,0 l/m 0,0 km/h (0 Bft) O-NO 62 0 min 0 W/m 4,6 C 6,8 C 0,0 km/h (0 Bft)
26.03.2023 05:00 6,9 C 6,9 C 86 % 1009,1 hPa 0,0 l/m 0,0 km/h (0 Bft) O-NO 62 0 min 0 W/m 4,7 C 6,9 C 0,0 km/h (0 Bft)
26.03.2023 04:55 6,9 C 6,9 C 86 % 1009,1 hPa 0,0 l/m 0,0 km/h (0 Bft) O-NO 62 0 min 0 W/m 4,7 C 6,9 C 1,6 km/h (1 Bft)
26.03.2023 04:50 7,0 C 6,9 C 86 % 1009,2 hPa 0,0 l/m 0,2 km/h (0 Bft) O-NO 62 0 min 0 W/m 4,8 C 7,0 C 1,6 km/h (1 Bft)
26.03.2023 04:45 7,1 C 7,1 C 86 % 1009,2 hPa 0,0 l/m 0,4 km/h (0 Bft) NO 50 0 min 0 W/m 4,9 C 7,1 C 3,2 km/h (1 Bft)
26.03.2023 04:40 7,1 C 7,1 C 86 % 1009,3 hPa 0,0 l/m 0,1 km/h (0 Bft) O-NO 58 0 min 0 W/m 4,9 C 7,1 C 1,6 km/h (1 Bft)
26.03.2023 04:35 7,2 C 7,1 C 86 % 1009,3 hPa 0,0 l/m 0,0 km/h (0 Bft) O-NO 57 0 min 0 W/m 5,0 C 7,2 C 1,6 km/h (1 Bft)
26.03.2023 04:30 7,2 C 7,2 C 86 % 1009,4 hPa 0,0 l/m 0,2 km/h (0 Bft) O-NO 57 0 min 0 W/m 5,0 C 7,2 C 1,6 km/h (1 Bft)
26.03.2023 04:25 7,2 C 7,2 C 85 % 1009,5 hPa 0,0 l/m 0,1 km/h (0 Bft) NO 44 0 min 0 W/m 4,9 C 7,2 C 1,6 km/h (1 Bft)
26.03.2023 04:20 7,2 C 7,2 C 86 % 1009,5 hPa 0,0 l/m 0,0 km/h (0 Bft) NO 40 0 min 0 W/m 5,0 C 7,2 C 0,0 km/h (0 Bft)
26.03.2023 04:15 7,3 C 7,3 C 85 % 1009,8 hPa 0,0 l/m 0,0 km/h (0 Bft) NO 40 0 min 0 W/m 4,9 C 7,3 C 0,0 km/h (0 Bft)
26.03.2023 04:10 7,3 C 7,3 C 85 % 1009,9 hPa 0,0 l/m 0,3 km/h (0 Bft) NO 39 0 min 0 W/m 4,9 C 7,3 C 1,6 km/h (1 Bft)
26.03.2023 04:05 7,4 C 7,4 C 85 % 1010,0 hPa 0,0 l/m 0,6 km/h (0 Bft) O-NO 57 0 min 0 W/m 5,0 C 7,4 C 1,6 km/h (1 Bft)
26.03.2023 04:00 7,4 C 7,4 C 85 % 1010,1 hPa 0,0 l/m 0,6 km/h (0 Bft) O-NO 59 0 min 0 W/m 5,0 C 7,4 C 1,6 km/h (1 Bft)
26.03.2023 03:55 7,5 C 7,5 C 85 % 1010,2 hPa 0,0 l/m 0,7 km/h (0 Bft) NO 56 0 min 0 W/m 5,1 C 7,5 C 1,6 km/h (1 Bft)
26.03.2023 03:50 7,6 C 7,5 C 85 % 1010,1 hPa 0,0 l/m 0,1 km/h (0 Bft) O-NO 63 0 min 0 W/m 5,2 C 7,6 C 1,6 km/h (1 Bft)
26.03.2023 03:45 7,6 C 7,6 C 86 % 1010,2 hPa 0,0 l/m 0,0 km/h (0 Bft) O-NO 69 0 min 0 W/m 5,4 C 7,6 C 0,0 km/h (0 Bft)
26.03.2023 03:40 7,6 C 7,6 C 86 % 1010,3 hPa 0,0 l/m 0,0 km/h (0 Bft) O-NO 71 0 min 0 W/m 5,4 C 7,6 C 0,0 km/h (0 Bft)
26.03.2023 03:35 7,7 C 7,7 C 86 % 1010,4 hPa 0,0 l/m 0,0 km/h (0 Bft) O-NO 66 0 min 0 W/m 5,5 C 7,7 C 0,0 km/h (0 Bft)
26.03.2023 03:30 7,8 C 7,8 C 86 % 1010,4 hPa 0,0 l/m 0,0 km/h (0 Bft) O-NO 69 0 min 0 W/m 5,6 C 7,8 C 0,0 km/h (0 Bft)
26.03.2023 03:25 7,8 C 7,8 C 86 % 1010,5 hPa 0,0 l/m 0,0 km/h (0 Bft) O-NO 71 0 min 0 W/m 5,6 C 7,8 C 1,6 km/h (1 Bft)
26.03.2023 03:20 7,8 C 7,8 C 86 % 1010,5 hPa 0,0 l/m 0,5 km/h (0 Bft) O-NO 70 0 min 0 W/m 5,6 C 7,8 C 1,6 km/h (1 Bft)
26.03.2023 03:15 7,9 C 7,9 C 86 % 1010,7 hPa 0,0 l/m 0,0 km/h (0 Bft) O-NO 64 0 min 0 W/m 5,7 C 7,9 C 0,0 km/h (0 Bft)
26.03.2023 03:10 7,9 C 7,9 C 86 % 1010,7 hPa 0,0 l/m 0,0 km/h (0 Bft) O-NO 74 0 min 0 W/m 5,7 C 7,9 C 0,0 km/h (0 Bft)
26.03.2023 03:05 8,0 C 7,9 C 86 % 1010,9 hPa 0,0 l/m 0,0 km/h (0 Bft) O-NO 71 0 min 0 W/m 5,8 C 8,0 C 0,0 km/h (0 Bft)
26.03.2023 03:00 8,0 C 8,0 C 86 % 1010,9 hPa 0,0 l/m 0,0 km/h (0 Bft) O-NO 67 0 min 0 W/m 5,8 C 8,0 C 0,0 km/h (0 Bft)
26.03.2023 01:55 8,1 C 8,0 C 86 % 1011,1 hPa 0,0 l/m 0,0 km/h (0 Bft) NO 42 0 min 0 W/m 5,9 C 8,1 C 0,0 km/h (0 Bft)
26.03.2023 01:50 8,1 C 8,1 C 86 % 1011,2 hPa 0,0 l/m 0,0 km/h (0 Bft) NO 41 0 min 0 W/m 5,9 C 8,1 C 1,6 km/h (1 Bft)
26.03.2023 01:45 8,1 C 8,1 C 86 % 1011,3 hPa 0,0 l/m 0,0 km/h (0 Bft) N-NW 346 0 min 0 W/m 5,9 C 8,1 C 0,0 km/h (0 Bft)
26.03.2023 01:40 8,1 C 8,1 C 86 % 1011,2 hPa 0,0 l/m 0,0 km/h (0 Bft) N-NW 338 0 min 0 W/m 5,9 C 8,1 C 0,0 km/h (0 Bft)
26.03.2023 01:35 8,2 C 8,1 C 86 % 1011,3 hPa 0,0 l/m 0,0 km/h (0 Bft) SO 135 0 min 0 W/m 6,0 C 8,2 C 0,0 km/h (0 Bft)
26.03.2023 01:30 8,2 C 8,2 C 86 % 1011,3 hPa 0,0 l/m 0,0 km/h (0 Bft) SO 136 0 min 0 W/m 6,0 C 8,2 C 0,0 km/h (0 Bft)
26.03.2023 01:25 8,2 C 8,2 C 86 % 1011,3 hPa 0,0 l/m 0,0 km/h (0 Bft) SO 136 0 min 0 W/m 6,0 C 8,2 C 0,0 km/h (0 Bft)
26.03.2023 01:20 8,2 C 8,2 C 86 % 1011,4 hPa 0,0 l/m 0,0 km/h (0 Bft) SO 136 0 min 0 W/m 6,0 C 8,2 C 0,0 km/h (0 Bft)
26.03.2023 01:15 8,2 C 8,2 C 86 % 1011,5 hPa 0,0 l/m 0,4 km/h (0 Bft) SO 136 0 min 0 W/m 6,0 C 8,2 C 1,6 km/h (1 Bft)
26.03.2023 01:10 8,3 C 8,3 C 86 % 1011,5 hPa 0,0 l/m 0,1 km/h (0 Bft) SO 145 0 min 0 W/m 6,1 C 8,3 C 1,6 km/h (1 Bft)
26.03.2023 01:05 8,3 C 8,3 C 86 % 1011,4 hPa 0,0 l/m 0,2 km/h (0 Bft) SO 139 0 min 0 W/m 6,1 C 8,3 C 1,6 km/h (1 Bft)
26.03.2023 01:00 8,3 C 8,3 C 85 % 1011,4 hPa 0,0 l/m 0,1 km/h (0 Bft) SO 132 0 min 0 W/m 5,9 C 8,3 C 1,6 km/h (1 Bft)
26.03.2023 00:55 8,4 C 8,3 C 85 % 1011,4 hPa 0,0 l/m 0,0 km/h (0 Bft) O-NO 59 0 min 0 W/m 6,0 C 8,4 C 0,0 km/h (0 Bft)
26.03.2023 00:50 8,4 C 8,4 C 85 % 1011,3 hPa 0,0 l/m 0,0 km/h (0 Bft) NO 54 0 min 0 W/m 6,0 C 8,4 C 0,0 km/h (0 Bft)
26.03.2023 00:45 8,4 C 8,4 C 85 % 1011,3 hPa 0,0 l/m 0,4 km/h (0 Bft) O-NO 61 0 min 0 W/m 6,0 C 8,4 C 6,4 km/h (2 Bft)
26.03.2023 00:40 8,4 C 8,4 C 85 % 1011,4 hPa 0,0 l/m 0,0 km/h (0 Bft) NO 51 0 min 0 W/m 6,0 C 8,4 C 0,0 km/h (0 Bft)
26.03.2023 00:35 8,5 C 8,5 C 84 % 1011,3 hPa 0,0 l/m 0,2 km/h (0 Bft) NO 42 0 min 0 W/m 6,0 C 8,5 C 3,2 km/h (1 Bft)
26.03.2023 00:30 8,5 C 8,5 C 84 % 1011,3 hPa 0,0 l/m 0,0 km/h (0 Bft) O-NO 63 0 min 0 W/m 6,0 C 8,5 C 0,0 km/h (0 Bft)
26.03.2023 00:25 8,6 C 8,6 C 84 % 1011,3 hPa 0,0 l/m 0,0 km/h (0 Bft) NO 46 0 min 0 W/m 6,1 C 8,6 C 0,0 km/h (0 Bft)
26.03.2023 00:20 8,6 C 8,6 C 83 % 1011,2 hPa 0,0 l/m 0,0 km/h (0 Bft) N 5 0 min 0 W/m 5,9 C 8,6 C 1,6 km/h (1 Bft)
26.03.2023 00:15 8,7 C 8,7 C 83 % 1011,3 hPa 0,0 l/m 0,3 km/h (0 Bft) NO 40 0 min 0 W/m 6,0 C 8,7 C 9,7 km/h (2 Bft)
26.03.2023 00:10 8,8 C 8,8 C 82 % 1011,4 hPa 0,0 l/m 0,0 km/h (0 Bft) N-NO 33 0 min 0 W/m 5,9 C 8,8 C 0,0 km/h (0 Bft)
26.03.2023 00:05 8,9 C 8,8 C 82 % 1011,4 hPa 0,0 l/m 0,5 km/h (0 Bft) N-NO 24 0 min 0 W/m 6,0 C 8,9 C 8,0 km/h (2 Bft)
26.03.2023 00:00 8,9 C 8,9 C 82 % 1011,5 hPa 0,0 l/m 0,2 km/h (0 Bft) O-NO 59 0 min 0 W/m 6,0 C 8,9 C 3,2 km/h (1 Bft)
_ Min-Zeit 06:05 06:05 00:00 08:15 - 00:10 - - - - 06:05 06:05 00:10
Minimum _ 6,4 C 6,4 C 82 % 1006,0 hPa - 0,0 km/h (0 Bft) - - - - 4,6 C 6,4 C 0,0 km/h (0 Bft)
_ Max-Zeit 00:00 00:00 07:10 00:00 00:00 07:35 - - 00:00 00:00 01:05 00:00 00:15
Maximum _ 9,0 C 8,9 C 90 % 1011,5 hPa 0,0 l/m 1,4 km/h
NO (1 Bft)
- - 0 min 0 W/m 6,1 C 8,9 C 9,7 km/h
NO (2 Bft)
Durchschnitt _ 7,3 C 7,3 C 87 % 1009,3 hPa #0,0 l/m 0,1 km/h (0 Bft) NO - #0 min. 0 W/m 5,3 C 7,3 C 1,1 km/h (1 Bft)